Weather in Baksheyevo

Russia / Vladimir Oblast     56°26′57″N   38°42′17″E
temp.,
°C
wind,
m/s
gust,
m/s
humid.,
%
clouds,
%
prec.,
mm/h
press.,
hPa
HPBL,
m
22 october, fri
fri2200:00+10ssw61584100 0.0 993697
03:00+10sw71782100 0.0 992969
06:00+10sw7168166 0.0 9911006
09:00+10wsw7137815 0.0 9921083
12:00+10wsw6147188 0.1 9931473
15:00+9wsw817714 0.5 9951622
18:00+7wsw715725 0.1 9981285
21:00+6wsw71572100 0.1 10001239
23 october, sat
sat2300:00+5wsw61376100 0.0 10001131
03:00+5sw61277100 0.0 1001969
06:00+5sw61277100 0.0 10011123
09:00+5sw6118295 0.0 10011111
12:00+6sw61072100 0.1 10021080
15:00+6sw5117385 0.1 10021321
18:00+4wsw51096100 0.3 1004795
21:00+4wsw4108395 1.3 1005954
24 october, sun
sun2400:00+3wsw4108672 0.0 1006546
03:00+3wsw41085100 0.0 1007541
06:00+3w5988100 0.1 1007813
09:00+2w3797100 0.9 1008481
12:00+2wnw3697100 0.4 1010403
15:00+2nw3997100 0.8 1012536
18:00+1nnw5108986 0.5 1015854
21:000nnw6118799 0.8 10181017
25 october, mon
mon2500:000nnw5108378 0.1 1021973
03:00−2nnw5129039 0.1 1024623
06:00−2nw4119344 0.0 1027477
09:00−2nw48878 0.0 1029360
12:00+2nw45635 0.0 1030671
15:00+2wnw356369 0.0 1031660
18:00−1wsw2680100 0.0 1031151
21:00−1sw3108077 0.0 1031306
26 october, tue
tue2600:000sw4127166 0.0 1030445
03:00−1sw513730 0.0 1029438
06:00−1sw51574100 0.0 1028477
09:000sw61569100 0.0 1027577
12:00+4wsw6155795 0.0 1025651
15:00+4sw61558100 0.0 1023692
18:00+2sw5156598 0.0 1022580
21:00+2sw61567100 0.0 1020629